Time,TemperatureF,DewpointF,PressureIn,WindDirection,WindDirectionDegrees,WindSpeedMPH,WindSpeedGustMPH,Humidity,HourlyPrecipIn,Conditions,Clouds,dailyrainin,SoftwareType,DateUTC
2013-02-04 00:00:00,60.3,47.2,30.00,SSE,151,8.0,10.0,62,0.00,,,0.00,VWS V14.01,2013-02-04 06:00:00,
2013-02-04 00:02:00,60.2,47.2,29.99,ESE,119,9.0,9.0,62,0.00,,,0.00,VWS V14.01,2013-02-04 06:02:00,
2013-02-04 00:05:00,60.2,47.2,29.99,ESE,113,6.0,12.0,62,0.00,,,0.00,VWS V14.01,2013-02-04 06:05:00,
2013-02-04 00:07:00,60.1,47.0,29.99,ESE,108,11.0,11.0,62,0.00,,,0.00,VWS V14.01,2013-02-04 06:07:00,
2013-02-04 00:10:00,60.0,47.4,29.99,ESE,120,7.0,11.0,63,0.00,,,0.00,VWS V14.01,2013-02-04 06:10:00,
2013-02-04 00:12:00,60.0,47.4,29.99,SE,125,6.0,9.0,63,0.00,,,0.00,VWS V14.01,2013-02-04 06:12:00,
2013-02-04 00:15:00,59.9,47.3,29.99,ESE,120,6.0,10.0,63,0.00,,,0.00,VWS V14.01,2013-02-04 06:15:00,
2013-02-04 00:17:00,59.8,47.2,29.99,ESE,123,6.0,13.0,63,0.00,,,0.00,VWS V14.01,2013-02-04 06:17:00,
2013-02-04 00:20:00,59.8,47.6,29.99,SE,125,9.0,13.0,64,0.00,,,0.00,VWS V14.01,2013-02-04 06:20:00,
2013-02-04 00:22:00,59.8,47.6,29.99,ESE,120,5.0,9.0,64,0.00,,,0.00,VWS V14.01,2013-02-04 06:22:00,
2013-02-04 00:25:00,59.7,47.5,29.99,SE,132,7.0,9.0,64,0.00,,,0.00,VWS V14.01,2013-02-04 06:25:00,
2013-02-04 00:27:00,59.6,47.4,29.99,ESE,116,6.0,8.0,64,0.00,,,0.00,VWS V14.01,2013-02-04 06:27:00,
2013-02-04 00:30:00,59.5,47.3,29.99,SE,126,10.0,10.0,64,0.00,,,0.00,VWS V14.01,2013-02-04 06:30:00,
2013-02-04 00:32:00,59.5,47.3,29.99,SE,132,7.0,10.0,64,0.00,,,0.00,VWS V14.01,2013-02-04 06:32:00,
2013-02-04 00:35:00,59.4,47.2,29.99,SE,124,9.0,10.0,64,0.00,,,0.00,VWS V14.01,2013-02-04 06:35:00,
2013-02-04 00:37:00,59.3,47.5,29.99,SE,133,4.0,10.0,65,0.00,,,0.00,VWS V14.01,2013-02-04 06:37:00,
2013-02-04 00:40:00,59.2,47.5,29.99,SE,135,7.0,10.0,65,0.00,,,0.00,VWS V14.01,2013-02-04 06:40:00,
2013-02-04 00:42:00,59.2,47.5,29.99,SE,129,4.0,8.0,65,0.00,,,0.00,VWS V14.01,2013-02-04 06:42:00,
2013-02-04 00:45:00,59.2,47.5,29.99,SE,136,8.0,11.0,65,0.00,,,0.00,VWS V14.01,2013-02-04 06:45:00,
2013-02-04 00:47:00,59.1,47.4,29.99,SE,131,7.0,9.0,65,0.00,,,0.00,VWS V14.01,2013-02-04 06:47:00,
2013-02-04 00:50:00,59.1,47.8,29.99,SSE,160,9.0,11.0,66,0.00,,,0.00,VWS V14.01,2013-02-04 06:50:00,
2013-02-04 00:52:00,59.1,47.8,29.99,SE,146,7.0,11.0,66,0.00,,,0.00,VWS V14.01,2013-02-04 06:52:00,
2013-02-04 00:55:00,59.1,47.8,29.99,SE,146,6.0,11.0,66,0.00,,,0.00,VWS V14.01,2013-02-04 06:55:00,
2013-02-04 00:57:00,59.0,47.7,29.99,SE,135,10.0,10.0,66,0.00,,,0.00,VWS V14.01,2013-02-04 06:57:00,
2013-02-04 01:00:00,59.0,47.7,29.99,SE,146,8.0,10.0,66,0.00,,,0.00,VWS V14.01,2013-02-04 07:00:00,
2013-02-04 01:02:00,58.9,47.6,29.99,SE,135,7.0,9.0,66,0.00,,,0.00,VWS V14.01,2013-02-04 07:02:00,
2013-02-04 01:05:00,58.9,48.0,29.98,SE,137,8.0,11.0,67,0.00,,,0.00,VWS V14.01,2013-02-04 07:05:00,
2013-02-04 01:07:00,58.8,47.9,29.98,ESE,115,6.0,11.0,67,0.00,,,0.00,VWS V14.01,2013-02-04 07:07:00,
2013-02-04 01:10:00,58.8,47.9,29.98,SE,137,7.0,12.0,67,0.00,,,0.00,VWS V14.01,2013-02-04 07:10:00,
2013-02-04 01:12:00,58.7,47.8,29.98,SE,137,8.0,13.0,67,0.00,,,0.00,VWS V14.01,2013-02-04 07:12:00,
2013-02-04 01:15:00,58.7,48.2,29.98,ESE,122,5.0,13.0,68,0.00,,,0.00,VWS V14.01,2013-02-04 07:15:00,
2013-02-04 01:17:00,58.6,48.1,29.98,SE,134,10.0,10.0,68,0.00,,,0.00,VWS V14.01,2013-02-04 07:17:00,
2013-02-04 01:20:00,58.6,48.1,29.98,SE,136,7.0,11.0,68,0.00,,,0.00,VWS V14.01,2013-02-04 07:20:00,
2013-02-04 01:22:00,58.6,48.1,29.98,ESE,118,8.0,12.0,68,0.00,,,0.00,VWS V14.01,2013-02-04 07:22:00,
2013-02-04 01:25:00,58.5,48.4,29.98,ESE,120,8.0,12.0,69,0.00,,,0.00,VWS V14.01,2013-02-04 07:25:00,
2013-02-04 01:27:00,58.5,48.4,29.98,ESE,123,8.0,13.0,69,0.00,,,0.00,VWS V14.01,2013-02-04 07:27:00,
2013-02-04 01:30:00,58.3,48.2,29.98,SE,130,9.0,13.0,69,0.00,,,0.00,VWS V14.01,2013-02-04 07:30:00,
2013-02-04 01:32:00,58.3,48.6,29.97,SE,129,9.0,11.0,70,0.00,,,0.00,VWS V14.01,2013-02-04 07:32:00,
2013-02-04 01:35:00,58.2,48.5,29.97,SE,133,7.0,12.0,70,0.00,,,0.00,VWS V14.01,2013-02-04 07:35:00,
2013-02-04 01:37:00,58.2,48.8,29.97,ESE,122,11.0,15.0,71,0.00,,,0.00,VWS V14.01,2013-02-04 07:37:00,
2013-02-04 01:40:00,58.2,48.8,29.97,SE,136,7.0,15.0,71,0.00,,,0.00,VWS V14.01,2013-02-04 07:40:00,
2013-02-04 01:42:00,58.1,48.8,29.97,SE,130,6.0,8.0,71,0.00,,,0.00,VWS V14.01,2013-02-04 07:42:00,
2013-02-04 01:45:00,58.0,48.7,29.97,SE,133,9.0,9.0,71,0.00,,,0.00,VWS V14.01,2013-02-04 07:45:00,
2013-02-04 01:47:00,58.0,49.0,29.97,ESE,120,8.0,9.0,72,0.00,,,0.00,VWS V14.01,2013-02-04 07:47:00,
2013-02-04 01:50:00,58.0,49.0,29.97,ESE,123,8.0,12.0,72,0.00,,,0.00,VWS V14.01,2013-02-04 07:50:00,
2013-02-04 01:52:00,58.0,49.0,29.97,ESE,123,9.0,10.0,72,0.00,,,0.00,VWS V14.01,2013-02-04 07:52:00,
2013-02-04 01:55:00,57.9,49.3,29.97,SSE,147,9.0,13.0,73,0.00,,,0.00,VWS V14.01,2013-02-04 07:55:00,
2013-02-04 01:57:00,57.9,49.3,29.97,ESE,123,8.0,12.0,73,0.00,,,0.00,VWS V14.01,2013-02-04 07:57:00,
2013-02-04 02:00:00,57.9,49.3,29.97,ESE,115,10.0,12.0,73,0.00,,,0.00,VWS V14.01,2013-02-04 08:00:00,
2013-02-04 02:02:00,57.8,49.6,29.97,SE,139,4.0,9.0,74,0.00,,,0.00,VWS V14.01,2013-02-04 08:02:00,
2013-02-04 02:05:00,57.8,49.6,29.97,SE,125,7.0,14.0,74,0.00,,,0.00,VWS V14.01,2013-02-04 08:05:00,
2013-02-04 02:07:00,57.8,49.6,29.97,SE,127,7.0,10.0,74,0.00,,,0.00,VWS V14.01,2013-02-04 08:07:00,
2013-02-04 02:10:00,57.7,49.8,29.97,ESE,116,7.0,11.0,75,0.00,,,0.00,VWS V14.01,2013-02-04 08:10:00,
2013-02-04 02:12:00,57.7,49.8,29.97,SE,144,7.0,12.0,75,0.00,,,0.00,VWS V14.01,2013-02-04 08:12:00,
2013-02-04 02:15:00,57.6,50.1,29.96,SE,134,9.0,12.0,76,0.00,,,0.00,VWS V14.01,2013-02-04 08:15:00,
2013-02-04 02:17:00,57.6,50.1,29.96,SSE,161,9.0,10.0,76,0.00,,,0.00,VWS V14.01,2013-02-04 08:17:00,
2013-02-04 02:20:00,57.6,50.1,29.97,SSE,151,6.0,11.0,76,0.00,,,0.00,VWS V14.01,2013-02-04 08:20:00,
2013-02-04 02:22:00,57.6,50.1,29.97,SE,142,4.0,8.0,76,0.00,,,0.00,VWS V14.01,2013-02-04 08:22:00,
2013-02-04 02:25:00,57.4,50.3,29.96,SE,146,7.0,9.0,77,0.00,,,0.00,VWS V14.01,2013-02-04 08:25:00,
2013-02-04 02:27:00,57.4,50.3,29.97,SE,133,5.0,8.0,77,0.00,,,0.00,VWS V14.01,2013-02-04 08:27:00,
2013-02-04 02:30:00,57.4,50.3,29.96,SE,141,3.0,9.0,77,0.00,,,0.00,VWS V14.01,2013-02-04 08:30:00,
2013-02-04 02:32:00,57.4,50.3,29.97,SSE,156,5.0,6.0,77,0.00,,,0.00,VWS V14.01,2013-02-04 08:32:00,
2013-02-04 02:35:00,57.3,50.5,29.97,SE,144,5.0,6.0,78,0.00,,,0.00,VWS V14.01,2013-02-04 08:35:00,
2013-02-04 02:37:00,57.3,50.5,29.96,South,170,4.0,6.0,78,0.00,,,0.00,VWS V14.01,2013-02-04 08:37:00,
2013-02-04 02:40:00,57.3,50.5,29.96,SSE,148,4.0,7.0,78,0.00,,,0.00,VWS V14.01,2013-02-04 08:40:00,
2013-02-04 02:42:00,57.2,50.4,29.96,ESE,119,5.0,5.0,78,0.00,,,0.00,VWS V14.01,2013-02-04 08:42:00,
2013-02-04 02:45:00,57.2,50.8,29.96,SE,143,4.0,8.0,79,0.00,,,0.00,VWS V14.01,2013-02-04 08:45:00,
2013-02-04 02:47:00,57.2,50.8,29.95,SSE,150,4.0,8.0,79,0.00,,,0.00,VWS V14.01,2013-02-04 08:47:00,
2013-02-04 02:50:00,57.3,50.8,29.96,SSE,149,5.0,9.0,79,0.00,,,0.00,VWS V14.01,2013-02-04 08:50:00,
2013-02-04 02:52:00,57.3,50.8,29.96,SE,136,4.0,8.0,79,0.00,,,0.00,VWS V14.01,2013-02-04 08:52:00,
2013-02-04 02:55:00,57.3,50.8,29.96,SE,136,5.0,8.0,79,0.00,,,0.00,VWS V14.01,2013-02-04 08:55:00,
2013-02-04 02:57:00,57.4,51.0,29.96,SE,142,4.0,6.0,79,0.00,,,0.00,VWS V14.01,2013-02-04 08:57:00,
2013-02-04 03:00:00,57.4,51.0,29.96,SE,140,4.0,6.0,79,0.00,,,0.00,VWS V14.01,2013-02-04 09:00:00,
2013-02-04 03:02:00,57.4,51.3,29.95,SSE,154,5.0,10.0,80,0.00,,,0.00,VWS V14.01,2013-02-04 09:02:00,
2013-02-04 03:05:00,57.5,51.4,29.95,SE,137,7.0,10.0,80,0.00,,,0.00,VWS V14.01,2013-02-04 09:05:00,
2013-02-04 03:07:00,57.6,51.5,29.95,ESE,123,6.0,7.0,80,0.00,,,0.00,VWS V14.01,2013-02-04 09:07:00,
2013-02-04 03:10:00,57.6,51.5,29.95,ESE,114,4.0,9.0,80,0.00,,,0.00,VWS V14.01,2013-02-04 09:10:00,
2013-02-04 03:12:00,57.6,51.5,29.95,SE,146,3.0,5.0,80,0.00,,,0.00,VWS V14.01,2013-02-04 09:12:00,
2013-02-04 03:15:00,57.6,51.5,29.95,SE,132,3.0,8.0,80,0.00,,,0.00,VWS V14.01,2013-02-04 09:15:00,
2013-02-04 03:17:00,57.6,51.5,29.95,SE,130,4.0,8.0,80,0.00,,,0.00,VWS V14.01,2013-02-04 09:17:00,
2013-02-04 03:20:00,57.6,51.5,29.95,ESE,123,5.0,8.0,80,0.00,,,0.00,VWS V14.01,2013-02-04 09:20:00,
2013-02-04 03:22:00,57.6,51.5,29.95,SE,127,4.0,7.0,80,0.00,,,0.00,VWS V14.01,2013-02-04 09:22:00,
2013-02-04 03:25:00,57.6,51.5,29.95,SE,136,5.0,7.0,80,0.00,,,0.00,VWS V14.01,2013-02-04 09:25:00,
2013-02-04 03:27:00,57.6,51.5,29.95,SE,133,5.0,6.0,80,0.00,,,0.00,VWS V14.01,2013-02-04 09:27:00,
2013-02-04 03:30:00,57.6,51.8,29.95,SE,132,3.0,6.0,81,0.00,,,0.00,VWS V14.01,2013-02-04 09:30:00,
2013-02-04 03:32:00,57.6,51.8,29.95,ESE,120,3.0,5.0,81,0.00,,,0.00,VWS V14.01,2013-02-04 09:32:00,
2013-02-04 03:35:00,57.6,51.8,29.95,SE,142,2.0,5.0,81,0.00,,,0.00,VWS V14.01,2013-02-04 09:35:00,
2013-02-04 03:37:00,57.6,51.8,29.95,SE,132,2.0,3.0,81,0.00,,,0.00,VWS V14.01,2013-02-04 09:37:00,
2013-02-04 03:40:00,57.5,51.7,29.95,SE,137,4.0,5.0,81,0.00,,,0.00,VWS V14.01,2013-02-04 09:40:00,
2013-02-04 03:42:00,57.5,51.7,29.95,SE,136,3.0,5.0,81,0.00,,,0.00,VWS V14.01,2013-02-04 09:42:00,
2013-02-04 03:45:00,57.5,51.7,29.95,SSE,156,3.0,6.0,81,0.00,,,0.00,VWS V14.01,2013-02-04 09:45:00,
2013-02-04 03:47:00,57.5,51.7,29.95,ESE,119,4.0,5.0,81,0.00,,,0.00,VWS V14.01,2013-02-04 09:47:00,
2013-02-04 03:50:00,57.5,51.7,29.95,SE,142,3.0,8.0,81,0.00,,,0.00,VWS V14.01,2013-02-04 09:50:00,
2013-02-04 03:52:00,57.5,51.7,29.95,SE,144,3.0,5.0,81,0.00,,,0.00,VWS V14.01,2013-02-04 09:52:00,
2013-02-04 03:55:00,57.5,51.7,29.95,SE,144,2.0,5.0,81,0.00,,,0.00,VWS V14.01,2013-02-04 09:55:00,
2013-02-04 03:57:00,57.5,52.1,29.95,SE,129,1.0,4.0,82,0.00,,,0.00,VWS V14.01,2013-02-04 09:57:00,
2013-02-04 04:00:00,57.5,52.1,29.95,SE,129,3.0,5.0,82,0.00,,,0.00,VWS V14.01,2013-02-04 10:00:00,
2013-02-04 04:02:00,57.5,52.1,29.95,SE,131,2.0,4.0,82,0.00,,,0.00,VWS V14.01,2013-02-04 10:02:00,
2013-02-04 04:05:00,57.4,52.0,29.95,SE,139,3.0,4.0,82,0.00,,,0.00,VWS V14.01,2013-02-04 10:05:00,
2013-02-04 04:07:00,57.5,52.1,29.95,SE,126,5.0,5.0,82,0.00,,,0.00,VWS V14.01,2013-02-04 10:07:00,
2013-02-04 04:10:00,57.5,52.1,29.94,SE,135,2.0,6.0,82,0.00,,,0.00,VWS V14.01,2013-02-04 10:10:00,
2013-02-04 04:12:00,57.4,52.0,29.94,SE,126,2.0,4.0,82,0.00,,,0.00,VWS V14.01,2013-02-04 10:12:00,
2013-02-04 04:15:00,57.4,52.0,29.94,SE,137,2.0,4.0,82,0.00,,,0.00,VWS V14.01,2013-02-04 10:15:00,
2013-02-04 04:17:00,57.3,51.9,29.94,ESE,116,2.0,3.0,82,0.00,,,0.00,VWS V14.01,2013-02-04 10:17:00,
2013-02-04 04:20:00,57.3,51.9,29.94,ESE,122,3.0,4.0,82,0.00,,,0.00,VWS V14.01,2013-02-04 10:20:00,
2013-02-04 04:22:00,57.2,52.1,29.94,East,101,2.0,3.0,83,0.00,,,0.00,VWS V14.01,2013-02-04 10:22:00,
2013-02-04 04:25:00,57.2,52.1,29.93,ESE,105,3.0,5.0,83,0.00,,,0.00,VWS V14.01,2013-02-04 10:25:00,
2013-02-04 04:27:00,57.1,52.0,29.93,ESE,112,2.0,3.0,83,0.00,,,0.00,VWS V14.01,2013-02-04 10:27:00,
2013-02-04 04:30:00,57.0,51.9,29.93,ESE,115,3.0,4.0,83,0.00,,,0.00,VWS V14.01,2013-02-04 10:30:00,
2013-02-04 04:32:00,57.0,51.9,29.93,SE,137,4.0,5.0,83,0.00,,,0.00,VWS V14.01,2013-02-04 10:32:00,
2013-02-04 04:35:00,57.0,51.9,29.93,ESE,122,1.0,5.0,83,0.00,,,0.00,VWS V14.01,2013-02-04 10:35:00,
2013-02-04 04:37:00,57.0,51.9,29.93,ESE,118,1.0,2.0,83,0.00,,,0.00,VWS V14.01,2013-02-04 10:37:00,
2013-02-04 04:40:00,57.0,52.2,29.93,ESE,118,1.0,3.0,84,0.00,,,0.00,VWS V14.01,2013-02-04 10:40:00,
2013-02-04 04:42:00,57.0,52.2,29.94,SE,126,1.0,2.0,84,0.00,,,0.00,VWS V14.01,2013-02-04 10:42:00,
2013-02-04 04:45:00,57.0,52.2,29.94,ESE,119,1.0,2.0,84,0.00,,,0.00,VWS V14.01,2013-02-04 10:45:00,
2013-02-04 04:47:00,57.0,52.2,29.93,ESE,118,1.0,1.0,84,0.00,,,0.00,VWS V14.01,2013-02-04 10:47:00,
2013-02-04 04:50:00,57.0,52.2,29.93,ESE,118,0.0,1.0,84,0.00,,,0.00,VWS V14.01,2013-02-04 10:50:00,
2013-02-04 04:52:00,57.1,52.3,29.93,ESE,119,0.0,1.0,84,0.00,,,0.00,VWS V14.01,2013-02-04 10:52:00,
2013-02-04 04:55:00,57.1,52.3,29.94,ESE,117,1.0,1.0,84,0.00,,,0.00,VWS V14.01,2013-02-04 10:55:00,
2013-02-04 04:57:00,57.0,52.2,29.93,ESE,118,1.0,1.0,84,0.00,,,0.00,VWS V14.01,2013-02-04 10:57:00,
2013-02-04 05:00:00,57.1,52.3,29.93,ESE,109,0.0,2.0,84,0.00,,,0.00,VWS V14.01,2013-02-04 11:00:00,
2013-02-04 05:02:00,57.0,52.2,29.93,ESE,109,1.0,1.0,84,0.00,,,0.00,VWS V14.01,2013-02-04 11:02:00,
2013-02-04 05:05:00,57.0,52.2,29.93,ESE,109,0.0,1.0,84,0.00,,,0.00,VWS V14.01,2013-02-04 11:05:00,
2013-02-04 05:07:00,57.0,52.2,29.93,ESE,108,1.0,2.0,84,0.00,,,0.00,VWS V14.01,2013-02-04 11:07:00,
2013-02-04 05:10:00,57.0,52.5,29.93,ESE,109,1.0,2.0,85,0.00,,,0.00,VWS V14.01,2013-02-04 11:10:00,
2013-02-04 05:12:00,57.1,52.6,29.93,ESE,109,2.0,2.0,85,0.00,,,0.00,VWS V14.01,2013-02-04 11:12:00,
2013-02-04 05:15:00,56.9,52.4,29.93,ESE,108,2.0,3.0,85,0.00,,,0.00,VWS V14.01,2013-02-04 11:15:00,
2013-02-04 05:17:00,56.9,52.4,29.93,ESE,109,3.0,3.0,85,0.00,,,0.00,VWS V14.01,2013-02-04 11:17:00,
2013-02-04 05:20:00,56.8,52.7,29.92,ESE,114,3.0,3.0,86,0.00,,,0.00,VWS V14.01,2013-02-04 11:20:00,
2013-02-04 05:22:00,56.8,52.7,29.92,ESE,118,4.0,5.0,86,0.00,,,0.00,VWS V14.01,2013-02-04 11:22:00,
2013-02-04 05:25:00,56.8,53.0,29.93,SE,137,4.0,5.0,87,0.01,,,0.01,VWS V14.01,2013-02-04 11:25:00,
2013-02-04 05:27:00,56.8,53.0,29.92,SE,132,4.0,4.0,87,0.01,,,0.01,VWS V14.01,2013-02-04 11:27:00,
2013-02-04 05:30:00,56.8,53.0,29.92,ESE,111,3.0,5.0,87,0.01,,,0.01,VWS V14.01,2013-02-04 11:30:00,
2013-02-04 05:32:00,56.8,53.0,29.92,East,82,2.0,4.0,87,0.02,,,0.02,VWS V14.01,2013-02-04 11:32:00,
2013-02-04 05:35:00,56.8,53.0,29.93,NE,36,1.0,4.0,87,0.02,,,0.02,VWS V14.01,2013-02-04 11:35:00,
2013-02-04 05:37:00,56.8,53.0,29.93,North,8,2.0,2.0,87,0.02,,,0.02,VWS V14.01,2013-02-04 11:37:00,
2013-02-04 05:40:00,56.8,53.3,29.92,East,84,4.0,4.0,88,0.02,,,0.02,VWS V14.01,2013-02-04 11:40:00,
2013-02-04 05:42:00,56.7,53.2,29.92,East,95,5.0,5.0,88,0.02,,,0.02,VWS V14.01,2013-02-04 11:42:00,
2013-02-04 05:45:00,56.7,53.2,29.93,NW,317,2.0,6.0,88,0.02,,,0.02,VWS V14.01,2013-02-04 11:45:00,
2013-02-04 05:47:00,56.6,53.1,29.94,WNW,299,2.0,3.0,88,0.02,,,0.02,VWS V14.01,2013-02-04 11:47:00,
2013-02-04 05:50:00,56.5,53.0,29.94,NNW,331,0.0,3.0,88,0.02,,,0.02,VWS V14.01,2013-02-04 11:50:00,
2013-02-04 05:52:00,56.6,53.1,29.94,South,182,1.0,2.0,88,0.02,,,0.02,VWS V14.01,2013-02-04 11:52:00,
2013-02-04 05:55:00,56.8,53.6,29.93,SE,142,3.0,4.0,89,0.02,,,0.02,VWS V14.01,2013-02-04 11:55:00,
2013-02-04 05:57:00,56.9,53.7,29.93,SE,132,6.0,6.0,89,0.02,,,0.02,VWS V14.01,2013-02-04 11:57:00,
2013-02-04 06:00:00,57.1,53.9,29.92,SE,131,7.0,9.0,89,0.02,,,0.02,VWS V14.01,2013-02-04 12:00:00,
2013-02-04 06:02:00,57.2,54.0,29.92,SSE,147,5.0,8.0,89,0.02,,,0.02,VWS V14.01,2013-02-04 12:02:00,
2013-02-04 06:05:00,57.6,54.4,29.92,SSE,154,4.0,8.0,89,0.02,,,0.02,VWS V14.01,2013-02-04 12:05:00,
2013-02-04 06:07:00,57.6,54.4,29.93,SE,137,2.0,6.0,89,0.02,,,0.02,VWS V14.01,2013-02-04 12:07:00,
2013-02-04 06:10:00,57.7,54.5,29.92,SE,133,7.0,7.0,89,0.02,,,0.02,VWS V14.01,2013-02-04 12:10:00,
2013-02-04 06:11:00,57.8,54.6,29.92,SSE,158,5.0,7.0,89,0.02,,,0.02,VWS V14.01,2013-02-04 12:11:00,
2013-02-04 06:15:00,57.9,54.4,29.93,South,188,2.0,7.0,88,0.02,,,0.02,VWS V14.01,2013-02-04 12:15:00,
2013-02-04 06:16:00,57.9,54.4,29.93,SE,146,0.0,3.0,88,0.03,,,0.03,VWS V14.01,2013-02-04 12:16:00,
2013-02-04 06:20:00,58.0,54.5,29.93,SE,124,4.0,5.0,88,0.03,,,0.03,VWS V14.01,2013-02-04 12:20:00,
2013-02-04 06:21:00,58.0,54.5,29.93,SE,133,2.0,4.0,88,0.03,,,0.03,VWS V14.01,2013-02-04 12:21:00,
2013-02-04 06:25:00,58.1,54.6,29.92,SE,146,3.0,6.0,88,0.03,,,0.03,VWS V14.01,2013-02-04 12:25:00,
2013-02-04 06:26:00,58.1,54.6,29.92,SSE,158,3.0,5.0,88,0.02,,,0.03,VWS V14.01,2013-02-04 12:26:00,
2013-02-04 06:30:00,58.1,54.6,29.92,SE,133,5.0,6.0,88,0.02,,,0.03,VWS V14.01,2013-02-04 12:30:00,
2013-02-04 06:31:00,58.2,54.7,29.92,SE,137,3.0,6.0,88,0.02,,,0.03,VWS V14.01,2013-02-04 12:31:00,
2013-02-04 06:35:00,58.2,54.7,29.92,SSE,167,4.0,8.0,88,0.02,,,0.03,VWS V14.01,2013-02-04 12:35:00,
2013-02-04 06:36:00,58.2,54.7,29.92,SSE,151,4.0,6.0,88,0.01,,,0.03,VWS V14.01,2013-02-04 12:36:00,
2013-02-04 06:40:00,58.3,54.8,29.92,SSE,154,6.0,7.0,88,0.01,,,0.03,VWS V14.01,2013-02-04 12:40:00,
2013-02-04 06:41:00,58.3,54.8,29.92,SE,136,7.0,7.0,88,0.01,,,0.03,VWS V14.01,2013-02-04 12:41:00,
2013-02-04 06:45:00,58.4,54.9,29.92,SSE,147,4.0,7.0,88,0.01,,,0.03,VWS V14.01,2013-02-04 12:45:00,
2013-02-04 06:46:00,58.4,54.5,29.92,SE,137,3.0,6.0,87,0.01,,,0.03,VWS V14.01,2013-02-04 12:46:00,
2013-02-04 06:50:00,58.5,54.7,29.92,SE,137,6.0,8.0,87,0.01,,,0.03,VWS V14.01,2013-02-04 12:50:00,
2013-02-04 06:51:00,58.5,54.7,29.92,SE,133,3.0,6.0,87,0.01,,,0.03,VWS V14.01,2013-02-04 12:51:00,
2013-02-04 06:55:00,58.6,54.8,29.93,ESE,102,2.0,6.0,87,0.01,,,0.03,VWS V14.01,2013-02-04 12:55:00,
2013-02-04 06:56:00,58.6,54.8,29.93,ESE,104,3.0,4.0,87,0.01,,,0.03,VWS V14.01,2013-02-04 12:56:00,
2013-02-04 07:00:00,58.7,54.8,29.93,SE,137,3.0,5.0,87,0.01,,,0.03,VWS V14.01,2013-02-04 13:00:00,
2013-02-04 07:01:00,58.7,54.8,29.93,SE,137,3.0,4.0,87,0.01,,,0.03,VWS V14.01,2013-02-04 13:01:00,
2013-02-04 07:05:00,58.7,54.8,29.92,SE,139,6.0,8.0,87,0.01,,,0.03,VWS V14.01,2013-02-04 13:05:00,
2013-02-04 07:06:00,58.8,55.0,29.92,SE,137,4.0,7.0,87,0.01,,,0.03,VWS V14.01,2013-02-04 13:06:00,
2013-02-04 07:10:00,58.7,54.5,29.92,ESE,120,4.0,8.0,86,0.01,,,0.03,VWS V14.01,2013-02-04 13:10:00,
2013-02-04 07:11:00,58.7,54.8,29.92,SE,132,6.0,7.0,87,0.01,,,0.03,VWS V14.01,2013-02-04 13:11:00,
2013-02-04 07:15:00,58.7,54.8,29.91,SE,130,6.0,8.0,87,0.01,,,0.03,VWS V14.01,2013-02-04 13:15:00,
2013-02-04 07:16:00,58.7,54.8,29.92,SE,132,4.0,6.0,87,0.01,,,0.03,VWS V14.01,2013-02-04 13:16:00,
2013-02-04 07:20:00,58.7,54.8,29.91,SE,136,8.0,8.0,87,0.01,,,0.03,VWS V14.01,2013-02-04 13:20:00,
2013-02-04 07:21:00,58.7,54.8,29.91,SE,136,6.0,8.0,87,0.00,,,0.03,VWS V14.01,2013-02-04 13:21:00,
2013-02-04 07:25:00,58.8,54.9,29.90,SE,132,9.0,11.0,87,0.00,,,0.03,VWS V14.01,2013-02-04 13:25:00,
2013-02-04 07:26:00,58.8,54.6,29.90,SE,139,7.0,11.0,86,0.00,,,0.03,VWS V14.01,2013-02-04 13:26:00,
2013-02-04 07:30:00,58.9,54.7,29.91,SE,131,7.0,11.0,86,0.00,,,0.03,VWS V14.01,2013-02-04 13:30:00,
2013-02-04 07:31:00,58.9,54.7,29.91,ESE,120,5.0,8.0,86,0.00,,,0.03,VWS V14.01,2013-02-04 13:31:00,
2013-02-04 07:35:00,59.0,54.8,29.91,SE,136,9.0,12.0,86,0.00,,,0.03,VWS V14.01,2013-02-04 13:35:00,
2013-02-04 07:36:00,59.0,54.8,29.91,SSE,147,10.0,12.0,86,0.00,,,0.03,VWS V14.01,2013-02-04 13:36:00,
2013-02-04 07:40:00,59.1,54.9,29.91,SSE,153,6.0,12.0,86,0.00,,,0.03,VWS V14.01,2013-02-04 13:40:00,
2013-02-04 07:41:00,59.1,54.9,29.90,SE,146,6.0,11.0,86,0.00,,,0.03,VWS V14.01,2013-02-04 13:41:00,
2013-02-04 07:45:00,59.3,55.1,29.90,SSE,149,10.0,13.0,86,0.00,,,0.03,VWS V14.01,2013-02-04 13:45:00,
2013-02-04 07:46:00,59.3,55.1,29.90,SSE,150,6.0,10.0,86,0.00,,,0.03,VWS V14.01,2013-02-04 13:46:00,
2013-02-04 07:50:00,59.4,55.2,29.90,SE,130,8.0,12.0,86,0.00,,,0.03,VWS V14.01,2013-02-04 13:50:00,
2013-02-04 07:51:00,59.4,55.2,29.90,SSE,151,8.0,12.0,86,0.00,,,0.03,VWS V14.01,2013-02-04 13:51:00,
2013-02-04 07:55:00,59.5,55.0,29.89,ESE,115,10.0,12.0,85,0.00,,,0.03,VWS V14.01,2013-02-04 13:55:00,
2013-02-04 07:56:00,59.5,55.0,29.89,SSE,149,9.0,12.0,85,0.00,,,0.03,VWS V14.01,2013-02-04 13:56:00,
2013-02-04 08:00:00,59.7,55.2,29.89,SE,144,15.0,19.0,85,0.00,,,0.03,VWS V14.01,2013-02-04 14:00:00,
2013-02-04 08:01:00,59.8,55.3,29.88,SE,136,13.0,18.0,85,0.00,,,0.03,VWS V14.01,2013-02-04 14:01:00,
2013-02-04 08:05:00,60.0,55.2,29.88,SSE,166,11.0,18.0,84,0.00,,,0.03,VWS V14.01,2013-02-04 14:05:00,
2013-02-04 08:06:00,60.0,55.2,29.88,ESE,117,10.0,12.0,84,0.00,,,0.03,VWS V14.01,2013-02-04 14:06:00,
2013-02-04 08:10:00,60.0,55.2,29.88,SSE,167,11.0,19.0,84,0.00,,,0.03,VWS V14.01,2013-02-04 14:10:00,
2013-02-04 08:11:00,60.0,55.2,29.88,SE,144,12.0,16.0,84,0.00,,,0.03,VWS V14.01,2013-02-04 14:11:00,
2013-02-04 08:15:00,60.0,55.2,29.88,SE,131,9.0,17.0,84,0.00,,,0.03,VWS V14.01,2013-02-04 14:15:00,
2013-02-04 08:16:00,60.0,55.2,29.88,SE,139,5.0,12.0,84,0.00,,,0.03,VWS V14.01,2013-02-04 14:16:00,
2013-02-04 08:20:00,60.0,55.2,29.88,SE,125,13.0,20.0,84,0.00,,,0.03,VWS V14.01,2013-02-04 14:20:00,
2013-02-04 08:21:00,60.0,55.2,29.88,SSE,157,8.0,13.0,84,0.00,,,0.03,VWS V14.01,2013-02-04 14:21:00,
2013-02-04 08:25:00,60.1,55.3,29.88,SE,140,11.0,13.0,84,0.00,,,0.03,VWS V14.01,2013-02-04 14:25:00,
2013-02-04 08:26:00,60.1,55.3,29.88,SE,142,9.0,15.0,84,0.00,,,0.03,VWS V14.01,2013-02-04 14:26:00,
2013-02-04 08:30:00,60.3,55.5,29.88,SE,135,12.0,15.0,84,0.00,,,0.03,VWS V14.01,2013-02-04 14:30:00,
2013-02-04 08:31:00,60.3,55.5,29.88,SE,146,7.0,12.0,84,0.00,,,0.03,VWS V14.01,2013-02-04 14:31:00,
2013-02-04 08:35:00,60.3,55.5,29.88,SE,127,10.0,13.0,84,0.00,,,0.03,VWS V14.01,2013-02-04 14:35:00,
2013-02-04 08:36:00,60.3,55.5,29.88,SE,136,8.0,12.0,84,0.00,,,0.03,VWS V14.01,2013-02-04 14:36:00,
2013-02-04 08:40:00,60.4,55.5,29.89,SE,143,7.0,14.0,84,0.00,,,0.03,VWS V14.01,2013-02-04 14:40:00,
2013-02-04 08:41:00,60.4,55.5,29.89,SSE,153,6.0,8.0,84,0.00,,,0.03,VWS V14.01,2013-02-04 14:41:00,
2013-02-04 08:45:00,60.5,55.7,29.89,SSE,161,9.0,10.0,84,0.00,,,0.03,VWS V14.01,2013-02-04 14:45:00,
2013-02-04 08:46:00,60.5,55.7,29.89,SSE,154,7.0,8.0,84,0.00,,,0.03,VWS V14.01,2013-02-04 14:46:00,
2013-02-04 08:50:00,60.7,55.5,29.89,SSE,147,6.0,9.0,83,0.00,,,0.03,VWS V14.01,2013-02-04 14:50:00,
2013-02-04 08:51:00,60.7,55.5,29.89,SSE,147,9.0,10.0,83,0.00,,,0.03,VWS V14.01,2013-02-04 14:51:00,
2013-02-04 08:55:00,60.9,55.7,29.89,ESE,116,5.0,10.0,83,0.00,,,0.03,VWS V14.01,2013-02-04 14:55:00,
2013-02-04 08:56:00,60.9,55.7,29.89,South,184,3.0,6.0,83,0.00,,,0.03,VWS V14.01,2013-02-04 14:56:00,
2013-02-04 09:00:00,61.0,55.8,29.90,SSE,150,4.0,6.0,83,0.00,,,0.03,VWS V14.01,2013-02-04 15:00:00,
2013-02-04 09:01:00,61.1,55.9,29.90,SSE,158,1.0,4.0,83,0.00,,,0.03,VWS V14.01,2013-02-04 15:01:00,
2013-02-04 09:05:00,61.2,56.0,29.90,South,181,2.0,5.0,83,0.00,,,0.03,VWS V14.01,2013-02-04 15:05:00,
2013-02-04 09:06:00,61.2,56.0,29.91,South,171,7.0,7.0,83,0.00,,,0.03,VWS V14.01,2013-02-04 15:06:00,
2013-02-04 09:10:00,61.3,55.8,29.91,SW,232,2.0,7.0,82,0.00,,,0.03,VWS V14.01,2013-02-04 15:10:00,
2013-02-04 09:11:00,61.3,55.8,29.91,SSE,148,7.0,8.0,82,0.00,,,0.03,VWS V14.01,2013-02-04 15:11:00,
2013-02-04 09:15:00,61.4,55.9,29.91,South,171,4.0,8.0,82,0.00,,,0.03,VWS V14.01,2013-02-04 15:15:00,
2013-02-04 09:16:00,61.4,55.9,29.91,SSW,208,2.0,5.0,82,0.00,,,0.03,VWS V14.01,2013-02-04 15:16:00,
2013-02-04 09:20:00,61.6,56.1,29.91,SE,133,1.0,5.0,82,0.00,,,0.03,VWS V14.01,2013-02-04 15:20:00,
2013-02-04 09:21:00,61.6,56.1,29.91,SSE,149,6.0,9.0,82,0.00,,,0.03,VWS V14.01,2013-02-04 15:21:00,
2013-02-04 09:25:00,61.7,56.2,29.91,SE,140,3.0,9.0,82,0.00,,,0.03,VWS V14.01,2013-02-04 15:25:00,
2013-02-04 09:26:00,61.7,56.2,29.91,South,177,6.0,6.0,82,0.00,,,0.03,VWS V14.01,2013-02-04 15:26:00,
2013-02-04 09:30:00,61.8,56.2,29.91,South,172,6.0,8.0,82,0.00,,,0.03,VWS V14.01,2013-02-04 15:30:00,
2013-02-04 09:31:00,61.8,56.2,29.91,South,186,3.0,7.0,82,0.00,,,0.03,VWS V14.01,2013-02-04 15:31:00,
2013-02-04 09:35:00,62.0,56.5,29.91,SSE,163,2.0,7.0,82,0.00,,,0.03,VWS V14.01,2013-02-04 15:35:00,
2013-02-04 09:36:00,62.0,56.5,29.91,South,184,4.0,4.0,82,0.00,,,0.03,VWS V14.01,2013-02-04 15:36:00,
2013-02-04 09:40:00,62.1,56.2,29.91,South,186,2.0,6.0,81,0.00,,,0.03,VWS V14.01,2013-02-04 15:40:00,
2013-02-04 09:41:00,62.1,56.5,29.91,South,171,5.0,6.0,82,0.00,,,0.03,VWS V14.01,2013-02-04 15:41:00,
2013-02-04 09:45:00,62.3,56.4,29.91,SSE,161,2.0,6.0,81,0.00,,,0.03,VWS V14.01,2013-02-04 15:45:00,
2013-02-04 09:46:00,62.4,56.5,29.91,SW,224,1.0,5.0,81,0.00,,,0.03,VWS V14.01,2013-02-04 15:46:00,
2013-02-04 09:50:00,62.7,56.8,29.91,SSW,203,5.0,6.0,81,0.00,,,0.03,VWS V14.01,2013-02-04 15:50:00,
2013-02-04 09:51:00,62.7,56.5,29.91,SSW,194,2.0,5.0,80,0.00,,,0.03,VWS V14.01,2013-02-04 15:51:00,
2013-02-04 09:55:00,62.7,56.8,29.91,SSW,200,6.0,7.0,81,0.00,,,0.03,VWS V14.01,2013-02-04 15:55:00,
2013-02-04 09:56:00,62.7,56.5,29.91,SSE,168,5.0,6.0,80,0.00,,,0.03,VWS V14.01,2013-02-04 15:56:00,
2013-02-04 10:00:00,62.7,56.5,29.91,SSE,150,3.0,7.0,80,0.00,,,0.03,VWS V14.01,2013-02-04 16:00:00,
2013-02-04 10:01:00,62.8,56.5,29.91,SSW,203,6.0,8.0,80,0.00,,,0.03,VWS V14.01,2013-02-04 16:01:00,
2013-02-04 10:05:00,62.9,56.6,29.91,SE,129,4.0,8.0,80,0.00,,,0.03,VWS V14.01,2013-02-04 16:05:00,
2013-02-04 10:06:00,62.9,56.6,29.91,South,187,2.0,4.0,80,0.00,,,0.03,VWS V14.01,2013-02-04 16:06:00,
2013-02-04 10:10:00,63.0,56.7,29.91,SSW,210,4.0,6.0,80,0.00,,,0.03,VWS V14.01,2013-02-04 16:10:00,
2013-02-04 10:11:00,63.0,56.4,29.91,SE,126,1.0,4.0,79,0.00,,,0.03,VWS V14.01,2013-02-04 16:11:00,
2013-02-04 10:15:00,63.1,56.8,29.92,SE,126,1.0,5.0,80,0.00,,,0.03,VWS V14.01,2013-02-04 16:15:00,
2013-02-04 10:16:00,63.2,56.9,29.92,South,180,1.0,2.0,80,0.00,,,0.03,VWS V14.01,2013-02-04 16:16:00,
2013-02-04 10:20:00,63.3,57.0,29.92,SSE,163,0.0,4.0,80,0.00,,,0.03,VWS V14.01,2013-02-04 16:20:00,
2013-02-04 10:21:00,63.4,57.1,29.92,SSE,163,0.0,1.0,80,0.00,,,0.03,VWS V14.01,2013-02-04 16:21:00,
2013-02-04 10:25:00,63.5,56.9,29.92,WSW,244,2.0,3.0,79,0.00,,,0.03,VWS V14.01,2013-02-04 16:25:00,
2013-02-04 10:26:00,63.5,56.9,29.92,WNW,299,2.0,2.0,79,0.00,,,0.03,VWS V14.01,2013-02-04 16:26:00,
2013-02-04 10:30:00,63.6,57.0,29.92,SSW,209,1.0,4.0,79,0.00,,,0.03,VWS V14.01,2013-02-04 16:30:00,
2013-02-04 10:31:00,63.7,57.1,29.92,SSW,209,0.0,1.0,79,0.00,,,0.03,VWS V14.01,2013-02-04 16:31:00,
2013-02-04 10:35:00,63.8,57.2,29.91,SE,143,1.0,3.0,79,0.00,,,0.03,VWS V14.01,2013-02-04 16:35:00,
2013-02-04 10:36:00,63.8,57.2,29.91,SSW,196,2.0,3.0,79,0.00,,,0.03,VWS V14.01,2013-02-04 16:36:00,
2013-02-04 10:40:00,63.9,57.3,29.91,SW,215,2.0,3.0,79,0.00,,,0.03,VWS V14.01,2013-02-04 16:40:00,
2013-02-04 10:41:00,63.9,57.3,29.91,SSE,149,1.0,3.0,79,0.00,,,0.03,VWS V14.01,2013-02-04 16:41:00,
2013-02-04 10:45:00,64.1,57.1,29.91,South,174,3.0,6.0,78,0.00,,,0.03,VWS V14.01,2013-02-04 16:45:00,
2013-02-04 10:46:00,64.1,57.1,29.91,SW,215,2.0,3.0,78,0.00,,,0.03,VWS V14.01,2013-02-04 16:46:00,
2013-02-04 10:50:00,64.5,57.8,29.91,South,188,5.0,10.0,79,0.00,,,0.03,VWS V14.01,2013-02-04 16:50:00,
2013-02-04 10:51:00,64.7,57.7,29.91,SSW,194,4.0,7.0,78,0.00,,,0.03,VWS V14.01,2013-02-04 16:51:00,
2013-02-04 10:55:00,65.1,57.7,29.91,SSW,198,4.0,11.0,77,0.00,,,0.03,VWS V14.01,2013-02-04 16:55:00,
2013-02-04 10:56:00,65.2,57.8,29.91,South,180,4.0,9.0,77,0.00,,,0.03,VWS V14.01,2013-02-04 16:56:00,
2013-02-04 11:00:00,65.4,57.7,29.90,South,178,3.0,11.0,76,0.00,,,0.03,VWS V14.01,2013-02-04 17:00:00,
2013-02-04 11:01:00,65.5,57.7,29.90,WSW,241,6.0,9.0,76,0.00,,,0.03,VWS V14.01,2013-02-04 17:01:00,
2013-02-04 11:05:00,65.8,58.0,29.90,SW,217,6.0,9.0,76,0.00,,,0.03,VWS V14.01,2013-02-04 17:05:00,
2013-02-04 11:06:00,65.9,58.1,29.90,SW,234,7.0,7.0,76,0.00,,,0.03,VWS V14.01,2013-02-04 17:06:00,
2013-02-04 11:10:00,66.1,58.3,29.90,SW,217,5.0,11.0,76,0.00,,,0.03,VWS V14.01,2013-02-04 17:10:00,
2013-02-04 11:11:00,66.2,58.4,29.90,SW,218,4.0,5.0,76,0.00,,,0.03,VWS V14.01,2013-02-04 17:11:00,
2013-02-04 11:15:00,66.4,57.9,29.90,SW,217,6.0,9.0,74,0.00,,,0.03,VWS V14.01,2013-02-04 17:15:00,
2013-02-04 11:16:00,66.4,57.9,29.90,WSW,243,10.0,10.0,74,0.00,,,0.03,VWS V14.01,2013-02-04 17:16:00,
2013-02-04 11:20:00,66.6,58.4,29.89,West,263,3.0,10.0,75,0.00,,,0.03,VWS V14.01,2013-02-04 17:20:00,
2013-02-04 11:21:00,66.7,58.5,29.89,SSW,198,4.0,6.0,75,0.00,,,0.03,VWS V14.01,2013-02-04 17:21:00,
2013-02-04 11:25:00,67.0,58.8,29.89,SW,232,4.0,9.0,75,0.00,,,0.03,VWS V14.01,2013-02-04 17:25:00,
2013-02-04 11:26:00,67.1,58.5,29.89,South,184,2.0,4.0,74,0.00,,,0.03,VWS V14.01,2013-02-04 17:26:00,
2013-02-04 11:30:00,67.3,58.4,29.89,SSW,204,11.0,12.0,73,0.00,,,0.03,VWS V14.01,2013-02-04 17:30:00,
2013-02-04 11:31:00,67.2,57.9,29.89,SW,215,7.0,11.0,72,0.00,,,0.03,VWS V14.01,2013-02-04 17:31:00,
2013-02-04 11:35:00,67.4,58.1,29.89,SW,223,4.0,11.0,72,0.00,,,0.03,VWS V14.01,2013-02-04 17:35:00,
2013-02-04 11:36:00,67.5,58.2,29.89,SW,227,8.0,9.0,72,0.00,,,0.03,VWS V14.01,2013-02-04 17:36:00,
2013-02-04 11:40:00,67.6,58.3,29.89,SW,216,4.0,14.0,72,0.00,,,0.03,VWS V14.01,2013-02-04 17:40:00,
2013-02-04 11:41:00,67.6,58.3,29.89,WSW,239,6.0,8.0,72,0.00,,,0.03,VWS V14.01,2013-02-04 17:41:00,
2013-02-04 11:45:00,67.8,58.1,29.89,SSW,206,8.0,13.0,71,0.00,,,0.03,VWS V14.01,2013-02-04 17:45:00,
2013-02-04 11:46:00,67.8,58.1,29.89,SW,214,5.0,9.0,71,0.00,,,0.03,VWS V14.01,2013-02-04 17:46:00,
2013-02-04 11:50:00,67.6,57.9,29.89,SW,219,7.0,16.0,71,0.00,,,0.03,VWS V14.01,2013-02-04 17:50:00,
2013-02-04 11:51:00,67.6,57.9,29.89,SSW,210,10.0,13.0,71,0.00,,,0.03,VWS V14.01,2013-02-04 17:51:00,
2013-02-04 11:55:00,67.5,58.2,29.89,SSW,206,5.0,13.0,72,0.00,,,0.03,VWS V14.01,2013-02-04 17:55:00,
2013-02-04 11:56:00,67.5,58.2,29.89,SSW,196,7.0,7.0,72,0.00,,,0.03,VWS V14.01,2013-02-04 17:56:00,
2013-02-04 12:00:00,67.9,58.5,29.88,SSW,200,9.0,12.0,72,0.00,,,0.03,VWS V14.01,2013-02-04 18:00:00,
2013-02-04 12:01:00,68.1,58.3,29.88,South,191,7.0,9.0,71,0.00,,,0.03,VWS V14.01,2013-02-04 18:01:00,
2013-02-04 12:05:00,68.3,57.8,29.88,SSW,200,11.0,18.0,69,0.00,,,0.03,VWS V14.01,2013-02-04 18:05:00,
2013-02-04 12:06:00,68.2,57.7,29.88,SSW,206,7.0,12.0,69,0.00,,,0.03,VWS V14.01,2013-02-04 18:06:00,
2013-02-04 12:10:00,68.6,58.4,29.88,SSW,192,3.0,12.0,70,0.00,,,0.03,VWS V14.01,2013-02-04 18:10:00,
2013-02-04 12:11:00,68.6,58.4,29.88,SSW,201,6.0,6.0,70,0.00,,,0.03,VWS V14.01,2013-02-04 18:11:00,
2013-02-04 12:15:00,69.4,58.8,29.88,WNW,292,5.0,9.0,69,0.00,,,0.03,VWS V14.01,2013-02-04 18:15:00,
2013-02-04 12:16:00,69.4,58.8,29.88,SW,234,8.0,8.0,69,0.00,,,0.03,VWS V14.01,2013-02-04 18:16:00,
2013-02-04 12:20:00,69.4,58.0,29.87,SSW,202,9.0,14.0,67,0.00,,,0.03,VWS V14.01,2013-02-04 18:20:00,
2013-02-04 12:21:00,69.3,57.5,29.87,SW,227,5.0,11.0,66,0.00,,,0.03,VWS V14.01,2013-02-04 18:21:00,
2013-02-04 12:25:00,69.1,58.5,29.87,SW,216,11.0,14.0,69,0.00,,,0.03,VWS V14.01,2013-02-04 18:25:00,
2013-02-04 12:26:00,69.1,57.7,29.87,West,263,8.0,11.0,67,0.00,,,0.03,VWS V14.01,2013-02-04 18:26:00,
2013-02-04 12:30:00,69.0,57.6,29.87,SW,225,2.0,13.0,67,0.00,,,0.03,VWS V14.01,2013-02-04 18:30:00,
2013-02-04 12:31:00,69.0,58.0,29.87,SSW,192,3.0,6.0,68,0.00,,,0.03,VWS V14.01,2013-02-04 18:31:00,
2013-02-04 12:35:00,69.5,58.5,29.86,SW,218,8.0,11.0,68,0.00,,,0.03,VWS V14.01,2013-02-04 18:35:00,
2013-02-04 12:36:00,69.6,58.6,29.86,WSW,246,9.0,13.0,68,0.00,,,0.03,VWS V14.01,2013-02-04 18:36:00,
2013-02-04 12:40:00,70.1,58.2,29.86,SW,215,10.0,13.0,66,0.00,,,0.03,VWS V14.01,2013-02-04 18:40:00,
2013-02-04 12:41:00,70.2,58.3,29.86,SSW,208,8.0,13.0,66,0.00,,,0.03,VWS V14.01,2013-02-04 18:41:00,
2013-02-04 12:45:00,70.4,58.5,29.85,SSW,201,4.0,13.0,66,0.00,,,0.03,VWS V14.01,2013-02-04 18:45:00,
2013-02-04 12:46:00,70.5,58.6,29.85,SSW,195,7.0,8.0,66,0.00,,,0.03,VWS V14.01,2013-02-04 18:46:00,
2013-02-04 12:50:00,70.5,58.2,29.85,SW,218,9.0,12.0,65,0.00,,,0.03,VWS V14.01,2013-02-04 18:50:00,
2013-02-04 12:55:00,71.2,58.4,29.85,SW,223,6.0,7.0,64,0.00,,,0.03,VWS V14.01,2013-02-04 18:55:00,
2013-02-04 13:00:00,71.6,58.8,29.84,SSW,196,5.0,9.0,64,0.00,,,0.03,VWS V14.01,2013-02-04 19:00:00,
2013-02-04 13:05:00,71.9,58.2,29.84,SSE,157,6.0,7.0,62,0.00,,,0.03,VWS V14.01,2013-02-04 19:05:00,
2013-02-04 13:10:00,72.5,59.2,29.83,WNW,301,1.0,4.0,63,0.00,,,0.03,VWS V14.01,2013-02-04 19:10:00,
2013-02-04 13:15:00,73.1,57.5,29.83,SSW,199,6.0,8.0,58,0.00,,,0.03,VWS V14.01,2013-02-04 19:15:00,
2013-02-04 13:20:00,72.8,57.2,29.83,SSW,198,10.0,12.0,58,0.00,,,0.03,VWS V14.01,2013-02-04 19:20:00,
2013-02-04 13:25:00,73.1,58.4,29.83,West,280,6.0,8.0,60,0.00,,,0.03,VWS V14.01,2013-02-04 19:25:00,
2013-02-04 13:30:00,72.8,57.2,29.82,WNW,297,2.0,4.0,58,0.00,,,0.03,VWS V14.01,2013-02-04 19:30:00,
2013-02-04 13:35:00,73.7,58.0,29.82,NW,313,4.0,6.0,58,0.00,,,0.03,VWS V14.01,2013-02-04 19:35:00,
2013-02-04 13:40:00,73.7,57.0,29.82,SSW,206,4.0,5.0,56,0.00,,,0.03,VWS V14.01,2013-02-04 19:40:00,
2013-02-04 13:45:00,73.9,57.2,29.82,SSW,203,5.0,7.0,56,0.00,,,0.03,VWS V14.01,2013-02-04 19:45:00,
2013-02-04 13:50:00,73.3,57.2,29.81,South,178,6.0,6.0,57,0.00,,,0.03,VWS V14.01,2013-02-04 19:50:00,
2013-02-04 13:55:00,73.5,57.8,29.81,South,187,9.0,10.0,58,0.00,,,0.03,VWS V14.01,2013-02-04 19:55:00,
2013-02-04 14:00:00,72.9,56.8,29.81,NW,316,4.0,5.0,57,0.00,,,0.03,VWS V14.01,2013-02-04 20:00:00,
2013-02-04 14:05:00,72.8,56.7,29.81,SSW,213,14.0,14.0,57,0.00,,,0.03,VWS V14.01,2013-02-04 20:05:00,
2013-02-04 14:10:00,72.7,56.1,29.80,SW,222,8.0,11.0,56,0.00,,,0.03,VWS V14.01,2013-02-04 20:10:00,
2013-02-04 14:15:00,72.7,56.6,29.80,WNW,297,4.0,4.0,57,0.00,,,0.03,VWS V14.01,2013-02-04 20:15:00,
2013-02-04 14:20:00,73.5,56.4,29.80,SW,227,7.0,9.0,55,0.00,,,0.03,VWS V14.01,2013-02-04 20:20:00,
2013-02-04 14:25:00,73.8,56.1,29.80,NW,320,2.0,3.0,54,0.00,,,0.03,VWS V14.01,2013-02-04 20:25:00,
2013-02-04 14:30:00,73.7,55.5,29.80,NW,306,5.0,6.0,53,0.00,,,0.03,VWS V14.01,2013-02-04 20:30:00,
2013-02-04 14:35:00,73.9,55.7,29.79,WNW,283,7.0,7.0,53,0.00,,,0.03,VWS V14.01,2013-02-04 20:35:00,
2013-02-04 14:40:00,73.4,54.2,29.79,SW,227,3.0,5.0,51,0.00,,,0.03,VWS V14.01,2013-02-04 20:40:00,
2013-02-04 14:45:00,73.3,55.2,29.79,WSW,241,3.0,3.0,53,0.00,,,0.03,VWS V14.01,2013-02-04 20:45:00,
2013-02-04 14:50:00,73.9,55.7,29.79,WNW,287,3.0,4.0,53,0.00,,,0.03,VWS V14.01,2013-02-04 20:50:00,
2013-02-04 14:55:00,74.0,55.3,29.79,SSW,194,8.0,8.0,52,0.00,,,0.03,VWS V14.01,2013-02-04 20:55:00,
2013-02-04 15:00:00,74.0,55.3,29.78,NNW,336,3.0,4.0,52,0.00,,,0.03,VWS V14.01,2013-02-04 21:00:00,
2013-02-04 15:05:00,74.2,54.4,29.78,SSE,165,4.0,5.0,50,0.00,,,0.03,VWS V14.01,2013-02-04 21:05:00,
2013-02-04 15:10:00,74.3,55.6,29.78,NW,310,1.0,4.0,52,0.00,,,0.03,VWS V14.01,2013-02-04 21:10:00,
2013-02-04 15:15:00,74.0,55.3,29.78,SW,222,4.0,4.0,52,0.00,,,0.03,VWS V14.01,2013-02-04 21:15:00,
2013-02-04 15:20:00,73.7,55.0,29.78,SW,225,1.0,2.0,52,0.00,,,0.03,VWS V14.01,2013-02-04 21:20:00,
2013-02-04 15:25:00,74.0,55.3,29.78,South,175,5.0,6.0,52,0.00,,,0.03,VWS V14.01,2013-02-04 21:25:00,
2013-02-04 15:30:00,73.9,55.7,29.77,SSW,203,13.0,13.0,53,0.00,,,0.03,VWS V14.01,2013-02-04 21:30:00,
2013-02-04 15:35:00,74.3,55.6,29.77,SSW,205,6.0,6.0,52,0.00,,,0.03,VWS V14.01,2013-02-04 21:35:00,
2013-02-04 15:40:00,74.4,55.7,29.77,SSE,157,1.0,2.0,52,0.00,,,0.03,VWS V14.01,2013-02-04 21:40:00,
2013-02-04 15:45:00,74.4,55.1,29.77,South,175,9.0,9.0,51,0.00,,,0.03,VWS V14.01,2013-02-04 21:45:00,
2013-02-04 15:50:00,74.1,55.9,29.77,South,172,6.0,6.0,53,0.00,,,0.03,VWS V14.01,2013-02-04 21:50:00,
2013-02-04 15:55:00,74.0,54.7,29.77,SSE,147,3.0,3.0,51,0.00,,,0.03,VWS V14.01,2013-02-04 21:55:00,
2013-02-04 16:00:00,73.8,54.6,29.77,South,179,4.0,4.0,51,0.00,,,0.03,VWS V14.01,2013-02-04 22:00:00,
2013-02-04 16:05:00,73.7,54.5,29.77,ESE,117,4.0,4.0,51,0.00,,,0.03,VWS V14.01,2013-02-04 22:05:00,
2013-02-04 16:10:00,73.8,54.6,29.77,South,174,7.0,8.0,51,0.00,,,0.03,VWS V14.01,2013-02-04 22:10:00,
2013-02-04 16:15:00,73.9,55.2,29.77,East,80,3.0,3.0,52,0.00,,,0.03,VWS V14.01,2013-02-04 22:15:00,
2013-02-04 16:20:00,74.1,54.8,29.77,South,174,6.0,7.0,51,0.00,,,0.03,VWS V14.01,2013-02-04 22:20:00,
2013-02-04 16:25:00,74.1,54.8,29.77,SSE,149,4.0,4.0,51,0.00,,,0.03,VWS V14.01,2013-02-04 22:25:00,
2013-02-04 16:30:00,74.0,54.7,29.77,SSE,167,3.0,3.0,51,0.00,,,0.03,VWS V14.01,2013-02-04 22:30:00,
2013-02-04 16:35:00,74.1,54.8,29.77,South,191,4.0,4.0,51,0.00,,,0.03,VWS V14.01,2013-02-04 22:35:00,
2013-02-04 16:40:00,74.4,54.6,29.77,SSE,151,2.0,2.0,50,0.00,,,0.03,VWS V14.01,2013-02-04 22:40:00,
2013-02-04 16:45:00,74.1,54.8,29.77,SSE,153,2.0,2.0,51,0.00,,,0.03,VWS V14.01,2013-02-04 22:45:00,
2013-02-04 16:50:00,74.2,54.9,29.77,SW,223,5.0,5.0,51,0.00,,,0.03,VWS V14.01,2013-02-04 22:50:00,
2013-02-04 16:55:00,74.5,55.2,29.77,SSW,199,3.0,7.0,51,0.00,,,0.03,VWS V14.01,2013-02-04 22:55:00,
2013-02-04 17:00:00,74.4,55.1,29.77,SW,215,3.0,7.0,51,0.00,,,0.03,VWS V14.01,2013-02-04 23:00:00,
2013-02-04 17:05:00,74.2,54.9,29.77,SE,137,3.0,5.0,51,0.00,,,0.03,VWS V14.01,2013-02-04 23:05:00,
2013-02-04 17:10:00,74.1,54.8,29.77,South,174,3.0,6.0,51,0.00,,,0.03,VWS V14.01,2013-02-04 23:10:00,
2013-02-04 17:15:00,73.9,54.7,29.77,SSE,156,2.0,6.0,51,0.00,,,0.03,VWS V14.01,2013-02-04 23:15:00,
2013-02-04 17:20:00,73.7,55.0,29.77,SE,136,4.0,5.0,52,0.00,,,0.03,VWS V14.01,2013-02-04 23:20:00,
2013-02-04 17:25:00,73.5,54.8,29.77,SE,144,2.0,8.0,52,0.00,,,0.03,VWS V14.01,2013-02-04 23:25:00,
2013-02-04 17:30:00,73.4,54.7,29.77,SSE,147,3.0,4.0,52,0.00,,,0.03,VWS V14.01,2013-02-04 23:30:00,
2013-02-04 17:35:00,73.2,55.1,29.77,SSE,154,3.0,4.0,53,0.00,,,0.03,VWS V14.01,2013-02-04 23:35:00,
2013-02-04 17:40:00,73.1,55.0,29.77,SSE,160,3.0,4.0,53,0.00,,,0.03,VWS V14.01,2013-02-04 23:40:00,
2013-02-04 17:45:00,72.9,54.8,29.77,SW,225,1.0,4.0,53,0.00,,,0.03,VWS V14.01,2013-02-04 23:45:00,
2013-02-04 17:50:00,72.7,54.6,29.77,South,187,3.0,4.0,53,0.00,,,0.03,VWS V14.01,2013-02-04 23:50:00,
2013-02-04 17:55:00,72.4,54.8,29.78,SSE,156,1.0,3.0,54,0.00,,,0.03,VWS V14.01,2013-02-04 23:55:00,
2013-02-04 18:00:00,72.0,54.5,29.78,SE,134,2.0,3.0,54,0.00,,,0.03,VWS V14.01,2013-02-05 00:00:00,
2013-02-04 18:05:00,71.6,54.6,29.78,SE,130,3.0,3.0,55,0.00,,,0.03,VWS V14.01,2013-02-05 00:05:00,
2013-02-04 18:10:00,71.1,54.6,29.78,SE,145,2.0,3.0,56,0.00,,,0.03,VWS V14.01,2013-02-05 00:10:00,
2013-02-04 18:15:00,70.5,54.5,29.78,SE,146,1.0,2.0,57,0.00,,,0.03,VWS V14.01,2013-02-05 00:15:00,
2013-02-04 18:20:00,70.0,54.6,29.78,SE,146,1.0,2.0,58,0.00,,,0.03,VWS V14.01,2013-02-05 00:20:00,
2013-02-04 18:25:00,69.5,54.6,29.78,SE,145,1.0,1.0,59,0.00,,,0.03,VWS V14.01,2013-02-05 00:25:00,
2013-02-04 18:30:00,69.0,54.5,29.79,SE,146,0.0,1.0,60,0.00,,,0.03,VWS V14.01,2013-02-05 00:30:00,
2013-02-04 18:35:00,68.0,54.1,29.79,ESE,116,1.0,1.0,61,0.00,,,0.03,VWS V14.01,2013-02-05 00:35:00,
2013-02-04 18:40:00,67.1,53.7,29.79,ESE,113,1.0,2.0,62,0.00,,,0.03,VWS V14.01,2013-02-05 00:40:00,
2013-02-04 18:45:00,66.5,54.4,29.80,ESE,113,2.0,2.0,65,0.00,,,0.03,VWS V14.01,2013-02-05 00:45:00,
2013-02-04 18:50:00,66.0,53.9,29.80,ESE,108,2.0,2.0,65,0.00,,,0.03,VWS V14.01,2013-02-05 00:50:00,
2013-02-04 18:55:00,65.3,54.1,29.80,ESE,106,2.0,3.0,67,0.00,,,0.03,VWS V14.01,2013-02-05 00:55:00,
2013-02-04 19:00:00,64.5,53.7,29.80,ESE,106,1.0,2.0,68,0.00,,,0.03,VWS V14.01,2013-02-05 01:00:00,
2013-02-04 19:05:00,64.3,53.9,29.81,ESE,106,0.0,1.0,69,0.00,,,0.03,VWS V14.01,2013-02-05 01:05:00,
2013-02-04 19:10:00,64.1,54.1,29.81,NE,45,0.0,0.0,70,0.00,,,0.03,VWS V14.01,2013-02-05 01:10:00,
2013-02-04 19:15:00,64.1,54.5,29.81,NE,45,0.0,0.0,71,0.00,,,0.03,VWS V14.01,2013-02-05 01:15:00,
2013-02-04 19:20:00,64.3,54.7,29.81,NE,45,0.0,0.0,71,0.00,,,0.03,VWS V14.01,2013-02-05 01:20:00,
2013-02-04 19:25:00,64.4,54.4,29.81,NE,45,0.0,0.0,70,0.00,,,0.03,VWS V14.01,2013-02-05 01:25:00,
2013-02-04 19:30:00,64.0,54.0,29.82,NE,45,0.0,1.0,70,0.00,,,0.03,VWS V14.01,2013-02-05 01:30:00,
2013-02-04 19:35:00,63.2,53.7,29.82,NE,45,0.0,0.0,71,0.00,,,0.03,VWS V14.01,2013-02-05 01:35:00,
2013-02-04 19:40:00,62.3,53.2,29.82,NE,45,0.0,0.0,72,0.00,,,0.03,VWS V14.01,2013-02-05 01:40:00,
2013-02-04 19:45:00,61.9,53.5,29.82,NE,45,0.0,0.0,74,0.00,,,0.03,VWS V14.01,2013-02-05 01:45:00,
2013-02-04 19:50:00,61.6,53.6,29.82,NE,45,0.0,0.0,75,0.00,,,0.03,VWS V14.01,2013-02-05 01:50:00,
2013-02-04 19:55:00,61.3,53.3,29.83,NE,45,0.0,0.0,75,0.00,,,0.03,VWS V14.01,2013-02-05 01:55:00,
2013-02-04 20:00:00,60.9,53.3,29.83,NE,45,0.0,0.0,76,0.00,,,0.03,VWS V14.01,2013-02-05 02:00:00,
2013-02-04 20:05:00,60.6,53.0,29.83,NE,45,0.0,1.0,76,0.00,,,0.03,VWS V14.01,2013-02-05 02:05:00,
2013-02-04 20:10:00,60.4,53.2,29.83,NE,45,0.0,0.0,77,0.00,,,0.03,VWS V14.01,2013-02-05 02:10:00,
2013-02-04 20:15:00,60.1,52.9,29.83,NE,45,0.0,0.0,77,0.00,,,0.03,VWS V14.01,2013-02-05 02:15:00,
2013-02-04 20:20:00,60.7,54.2,29.83,NE,45,1.0,1.0,79,0.00,,,0.03,VWS V14.01,2013-02-05 02:20:00,
2013-02-04 20:25:00,61.1,53.5,29.84,NE,45,0.0,1.0,76,0.00,,,0.03,VWS V14.01,2013-02-05 02:25:00,
2013-02-04 20:30:00,60.4,52.8,29.84,NE,45,0.0,0.0,76,0.00,,,0.03,VWS V14.01,2013-02-05 02:30:00,
2013-02-04 20:35:00,59.6,52.4,29.84,NE,45,0.0,0.0,77,0.00,,,0.03,VWS V14.01,2013-02-05 02:35:00,
2013-02-04 20:40:00,58.8,52.0,29.84,NE,45,0.0,0.0,78,0.00,,,0.03,VWS V14.01,2013-02-05 02:40:00,
2013-02-04 20:45:00,58.3,52.2,29.84,NE,45,0.0,0.0,80,0.00,,,0.03,VWS V14.01,2013-02-05 02:45:00,
2013-02-04 20:50:00,58.2,52.4,29.84,NE,45,0.0,0.0,81,0.00,,,0.03,VWS V14.01,2013-02-05 02:50:00,
2013-02-04 20:55:00,58.0,52.2,29.84,NE,45,0.0,0.0,81,0.00,,,0.03,VWS V14.01,2013-02-05 02:55:00,
2013-02-04 21:00:00,57.5,51.7,29.85,NE,45,0.0,0.0,81,0.00,,,0.03,VWS V14.01,2013-02-05 03:00:00,
2013-02-04 21:05:00,56.8,51.4,29.85,NE,45,0.0,0.0,82,0.00,,,0.03,VWS V14.01,2013-02-05 03:05:00,
2013-02-04 21:09:00,56.2,50.8,29.85,NE,45,0.0,0.0,82,0.00,,,0.03,VWS V14.01,2013-02-05 03:09:00,
2013-02-04 21:10:00,53.6,50.1,29.85,NE,45,0.0,0.0,88,0.00,,,0.03,VWS V14.01,2013-02-05 03:10:00,
2013-02-04 21:14:00,55.9,51.1,29.84,NE,45,0.0,0.0,84,0.00,,,0.03,VWS V14.01,2013-02-05 03:14:00,
2013-02-04 21:15:00,53.2,49.4,29.85,NE,45,0.0,0.0,87,0.00,,,0.03,VWS V14.01,2013-02-05 03:15:00,
2013-02-04 21:19:00,55.5,50.4,29.84,NE,45,0.0,0.0,83,0.00,,,0.03,VWS V14.01,2013-02-05 03:19:00,
2013-02-04 21:20:00,52.9,49.5,29.85,NE,45,0.0,0.0,88,0.00,,,0.03,VWS V14.01,2013-02-05 03:20:00,
2013-02-04 21:24:00,55.3,50.9,29.85,NE,45,0.0,0.0,85,0.00,,,0.03,VWS V14.01,2013-02-05 03:24:00,
2013-02-04 21:25:00,52.9,49.8,29.85,NE,45,0.0,0.0,89,0.00,,,0.03,VWS V14.01,2013-02-05 03:25:00,
2013-02-04 21:29:00,55.1,50.7,29.85,NE,45,0.0,0.0,85,0.00,,,0.03,VWS V14.01,2013-02-05 03:29:00,
2013-02-04 21:30:00,52.9,49.5,29.85,NE,45,0.0,0.0,88,0.00,,,0.03,VWS V14.01,2013-02-05 03:30:00,
2013-02-04 21:34:00,54.9,50.8,29.85,NE,45,0.0,0.0,86,0.00,,,0.03,VWS V14.01,2013-02-05 03:34:00,
2013-02-04 21:35:00,53.0,49.8,29.85,NE,45,0.0,0.0,89,0.00,,,0.03,VWS V14.01,2013-02-05 03:35:00,
2013-02-04 21:39:00,55.1,51.0,29.85,NE,45,0.0,0.0,86,0.00,,,0.03,VWS V14.01,2013-02-05 03:39:00,
2013-02-04 21:40:00,53.0,49.8,29.85,NE,45,0.0,0.0,89,0.00,,,0.03,VWS V14.01,2013-02-05 03:40:00,
2013-02-04 21:44:00,54.6,50.2,29.85,NE,45,0.0,0.0,85,0.00,,,0.03,VWS V14.01,2013-02-05 03:44:00,
2013-02-04 21:45:00,53.1,50.0,29.85,NE,45,0.0,0.0,89,0.00,,,0.03,VWS V14.01,2013-02-05 03:45:00,
2013-02-04 21:49:00,54.2,50.1,29.85,NE,45,0.0,0.0,86,0.00,,,0.03,VWS V14.01,2013-02-05 03:49:00,
2013-02-04 21:50:00,53.1,50.0,29.85,NE,45,0.0,0.0,89,0.00,,,0.03,VWS V14.01,2013-02-05 03:50:00,
2013-02-04 21:54:00,53.8,49.7,29.85,NE,45,0.0,0.0,86,0.00,,,0.03,VWS V14.01,2013-02-05 03:54:00,
2013-02-04 21:55:00,52.4,49.0,29.85,NE,45,0.0,0.0,88,0.00,,,0.03,VWS V14.01,2013-02-05 03:55:00,
2013-02-04 21:59:00,53.7,49.9,29.85,NE,45,0.0,0.0,87,0.00,,,0.03,VWS V14.01,2013-02-05 03:59:00,
2013-02-04 22:00:00,51.6,48.2,29.85,NE,45,0.0,0.0,88,0.00,,,0.03,VWS V14.01,2013-02-05 04:00:00,
2013-02-04 22:04:00,53.7,49.9,29.85,NE,45,0.0,0.0,87,0.00,,,0.03,VWS V14.01,2013-02-05 04:04:00,
2013-02-04 22:05:00,51.3,48.2,29.85,NE,45,0.0,0.0,89,0.00,,,0.03,VWS V14.01,2013-02-05 04:05:00,
2013-02-04 22:09:00,53.6,50.1,29.85,NE,45,0.0,0.0,88,0.00,,,0.03,VWS V14.01,2013-02-05 04:09:00,
2013-02-04 22:10:00,51.3,48.2,29.85,NE,45,0.0,0.0,89,0.00,,,0.03,VWS V14.01,2013-02-05 04:10:00,
2013-02-04 22:14:00,53.3,49.5,29.85,NE,45,0.0,0.0,87,0.00,,,0.03,VWS V14.01,2013-02-05 04:14:00,
2013-02-04 22:15:00,51.3,48.2,29.85,NE,45,0.0,0.0,89,0.00,,,0.03,VWS V14.01,2013-02-05 04:15:00,
2013-02-04 22:19:00,52.9,49.5,29.85,NE,45,0.0,0.0,88,0.00,,,0.03,VWS V14.01,2013-02-05 04:19:00,
2013-02-04 22:20:00,51.7,48.9,29.84,NE,45,0.0,0.0,90,0.00,,,0.03,VWS V14.01,2013-02-05 04:20:00,
2013-02-04 22:24:00,52.8,49.3,29.85,NE,45,0.0,0.0,88,0.00,,,0.03,VWS V14.01,2013-02-05 04:24:00,
2013-02-04 22:25:00,51.5,48.7,29.84,NE,45,0.0,0.0,90,0.00,,,0.03,VWS V14.01,2013-02-05 04:25:00,
2013-02-04 22:29:00,52.9,49.5,29.85,NE,45,0.0,0.0,88,0.00,,,0.03,VWS V14.01,2013-02-05 04:29:00,
2013-02-04 22:30:00,51.4,48.6,29.84,NE,45,0.0,0.0,90,0.00,,,0.03,VWS V14.01,2013-02-05 04:30:00,
2013-02-04 22:34:00,53.0,49.8,29.85,NE,45,0.0,0.0,89,0.00,,,0.03,VWS V14.01,2013-02-05 04:34:00,
2013-02-04 22:35:00,51.4,48.6,29.84,NE,45,0.0,0.0,90,0.00,,,0.03,VWS V14.01,2013-02-05 04:35:00,
2013-02-04 22:39:00,53.0,49.8,29.85,NE,45,0.0,0.0,89,0.00,,,0.03,VWS V14.01,2013-02-05 04:39:00,
2013-02-04 22:40:00,51.2,48.4,29.84,NE,45,0.0,0.0,90,0.00,,,0.03,VWS V14.01,2013-02-05 04:40:00,
2013-02-04 22:44:00,53.1,50.0,29.85,NE,45,0.0,0.0,89,0.00,,,0.03,VWS V14.01,2013-02-05 04:44:00,
2013-02-04 22:45:00,51.0,48.2,29.84,NE,45,0.0,0.0,90,0.00,,,0.03,VWS V14.01,2013-02-05 04:45:00,
2013-02-04 22:49:00,53.1,50.0,29.85,NE,45,0.0,0.0,89,0.00,,,0.03,VWS V14.01,2013-02-05 04:49:00,
2013-02-04 22:50:00,51.3,48.8,29.84,NE,45,0.0,0.0,91,0.00,,,0.03,VWS V14.01,2013-02-05 04:50:00,
2013-02-04 22:54:00,52.5,49.0,29.85,NE,45,0.0,0.0,88,0.00,,,0.03,VWS V14.01,2013-02-05 04:54:00,
2013-02-04 22:55:00,51.2,48.4,29.84,NE,45,0.0,0.0,90,0.00,,,0.03,VWS V14.01,2013-02-05 04:55:00,
2013-02-04 22:59:00,51.8,48.4,29.85,NE,45,0.0,0.0,88,0.00,,,0.03,VWS V14.01,2013-02-05 04:59:00,
2013-02-04 23:00:00,51.7,48.3,29.85,NE,45,0.0,0.0,88,0.00,,,0.03,VWS V14.01,2013-02-05 05:00:00,
2013-02-04 23:05:00,51.4,48.3,29.85,NE,45,0.0,0.0,89,0.00,,,0.03,VWS V14.01,2013-02-05 05:05:00,
2013-02-04 23:10:00,51.3,48.2,29.85,NE,45,0.0,0.0,89,0.00,,,0.03,VWS V14.01,2013-02-05 05:10:00,
2013-02-04 23:15:00,51.3,48.2,29.85,NE,45,0.0,0.0,89,0.00,,,0.03,VWS V14.01,2013-02-05 05:15:00,
2013-02-04 23:20:00,51.7,48.9,29.85,NE,45,0.0,0.0,90,0.00,,,0.03,VWS V14.01,2013-02-05 05:20:00,
2013-02-04 23:25:00,51.5,48.7,29.84,NE,45,0.0,0.0,90,0.00,,,0.03,VWS V14.01,2013-02-05 05:25:00,
2013-02-04 23:30:00,51.4,48.6,29.84,NE,45,0.0,0.0,90,0.00,,,0.03,VWS V14.01,2013-02-05 05:30:00,
2013-02-04 23:35:00,51.4,48.6,29.84,NE,45,0.0,0.0,90,0.00,,,0.03,VWS V14.01,2013-02-05 05:35:00,
2013-02-04 23:40:00,51.2,48.4,29.84,NE,45,0.0,0.0,90,0.00,,,0.03,VWS V14.01,2013-02-05 05:40:00,
2013-02-04 23:45:00,51.0,48.2,29.84,NE,45,0.0,0.0,90,0.00,,,0.03,VWS V14.01,2013-02-05 05:45:00,
2013-02-04 23:50:00,51.3,48.8,29.84,NE,45,0.0,0.0,91,0.00,,,0.03,VWS V14.01,2013-02-05 05:50:00,
2013-02-04 23:55:00,51.2,48.4,29.84,NE,45,0.0,0.0,90,0.00,,,0.03,VWS V14.01,2013-02-05 05:55:00,